📊 Raw Sensor Data

Showing records 50526 to 50550 of 85,136 total

ID Distance (ft) Battery V Battery A Int Temp (°F) Int Humid (%) Ext Temp (°F) Solar V RSSI SNR Time Stamp
34623 15.5 4.01 -10 55 39 57 0.00 -73 8 03/10/2025 08:45 PM
34622 15.4 3.96 -5 54 40 57 0.00 -75 8 03/10/2025 08:30 PM
34621 -- 4.01 -5 53 41 54 0.00 -75 8 03/10/2025 08:15 PM
34620 15.5 3.96 -5 54 42 54 0.00 -77 9 03/10/2025 08:00 PM
34619 -- 3.96 -5 55 42 56 0.10 -77 8 03/10/2025 07:46 PM
34618 -- 3.96 -5 56 43 57 0.10 -77 8 03/10/2025 07:30 PM
34617 -- 3.96 -9 59 43 57 1.70 -76 8 03/10/2025 07:15 PM
34616 -- 3.97 0 62 43 62 4.50 -77 8 03/10/2025 07:00 PM
34615 -- 4.05 9 65 42 63 4.50 -76 8 03/10/2025 06:46 PM
34614 -- 4.06 24 67 42 66 4.50 -75 8 03/10/2025 06:30 PM
34613 -- 4.05 37 68 42 65 4.50 -76 7 03/10/2025 06:15 PM
34612 15.5 4.06 36 69 43 66 4.50 -76 8 03/10/2025 06:00 PM
34611 -- 4.06 5 72 42 66 5.10 -75 8 03/10/2025 05:45 PM
34610 -- 4.07 5 74 42 67 5.10 -76 9 03/10/2025 05:30 PM
34609 -- 4.00 5 79 39 68 5.10 -75 9 03/10/2025 05:15 PM
34608 -- 4.00 0 80 38 70 5.10 -74 8 03/10/2025 05:01 PM
34607 -- 4.00 5 81 38 69 5.10 -75 8 03/10/2025 04:45 PM
34606 -- 4.00 5 82 38 70 5.10 -76 9 03/10/2025 04:31 PM
34605 -- 4.00 5 82 38 69 5.10 -75 8 03/10/2025 04:15 PM
34604 15.7 4.00 5 83 37 71 5.10 -76 7 03/10/2025 04:00 PM
34603 15.8 4.00 5 84 35 71 5.10 -77 7 03/10/2025 03:30 PM
34602 15.7 4.00 0 81 35 69 5.10 -75 8 03/10/2025 03:00 PM
34601 15.8 4.00 5 80 35 67 5.10 -76 8 03/10/2025 02:45 PM
34600 15.7 4.00 0 75 36 66 5.10 -76 7 03/10/2025 02:00 PM
34599 15.7 4.00 5 75 35 64 5.10 -76 7 03/10/2025 01:45 PM